TimeCST,TemperatureF,Dew PointF,Humidity,Sea Level PressureIn,VisibilityMPH,Wind Direction,Wind SpeedMPH,Gust SpeedMPH,PrecipitationIn,Events,Conditions,WindDirDegrees,DateUTC
12:15 AM,39.2,32.4,76,29.52,10.0,SW,8.1,-,N/A,,Overcast,220,2014-01-13 06:15:00
12:35 AM,39.0,32.2,76,29.52,10.0,SSW,8.1,-,N/A,,Overcast,210,2014-01-13 06:35:00
12:55 AM,38.7,32.2,78,29.52,10.0,SSW,6.9,-,N/A,,Overcast,210,2014-01-13 06:55:00
1:15 AM,38.7,32.2,78,29.52,10.0,SW,6.9,-,N/A,,Overcast,230,2014-01-13 07:15:00
1:35 AM,38.3,32.2,79,29.53,10.0,WSW,5.8,-,N/A,,Overcast,250,2014-01-13 07:35:00
1:55 AM,38.7,32.0,77,29.53,10.0,SW,6.9,-,N/A,,Overcast,230,2014-01-13 07:55:00
2:15 AM,38.1,32.0,79,29.53,10.0,Calm,Calm,-,N/A,,Overcast,0,2014-01-13 08:15:00
2:35 AM,37.9,32.0,79,29.52,10.0,SSW,3.5,-,N/A,,Overcast,210,2014-01-13 08:35:00
2:55 AM,37.9,32.0,79,29.52,10.0,Calm,Calm,-,N/A,,Overcast,0,2014-01-13 08:55:00
3:15 AM,37.4,32.0,81,29.51,10.0,SW,3.5,-,N/A,,Overcast,230,2014-01-13 09:15:00
3:35 AM,37.2,32.0,81,29.51,10.0,South,5.8,-,N/A,,Overcast,180,2014-01-13 09:35:00
3:55 AM,37.6,32.0,80,29.51,10.0,SSW,4.6,-,N/A,,Overcast,210,2014-01-13 09:55:00
4:15 AM,37.4,32.0,81,29.51,10.0,SSW,5.8,-,N/A,,Overcast,200,2014-01-13 10:15:00
4:35 AM,37.4,32.0,81,29.51,10.0,SW,5.8,-,N/A,,Overcast,220,2014-01-13 10:35:00
4:55 AM,37.4,32.0,81,29.51,10.0,SW,3.5,-,N/A,,Overcast,220,2014-01-13 10:55:00
5:15 AM,37.4,32.0,81,29.51,10.0,SW,6.9,-,N/A,,Overcast,220,2014-01-13 11:15:00
5:35 AM,37.4,32.0,81,29.51,10.0,West,3.5,-,N/A,,Overcast,260,2014-01-13 11:35:00
5:55 AM,37.4,32.0,81,29.52,10.0,Calm,Calm,-,N/A,,Overcast,0,2014-01-13 11:55:00
6:15 AM,36.9,32.0,83,29.53,10.0,West,5.8,-,N/A,,Overcast,260,2014-01-13 12:15:00
6:35 AM,36.9,32.0,83,29.53,10.0,WSW,4.6,-,N/A,,Overcast,250,2014-01-13 12:35:00
6:55 AM,37.0,32.0,82,29.52,10.0,Calm,Calm,-,N/A,,Overcast,0,2014-01-13 12:55:00
7:15 AM,36.9,32.0,83,29.51,10.0,Calm,Calm,-,N/A,,Overcast,0,2014-01-13 13:15:00
7:35 AM,37.4,32.0,81,29.53,10.0,Calm,Calm,-,N/A,,Mostly Cloudy,0,2014-01-13 13:35:00
7:55 AM,37.6,31.8,80,29.53,10.0,West,6.9,-,N/A,,Overcast,260,2014-01-13 13:55:00
8:15 AM,37.4,31.8,80,29.53,10.0,West,8.1,-,N/A,,Overcast,270,2014-01-13 14:15:00
8:35 AM,37.4,31.8,80,29.53,10.0,West,9.2,-,N/A,,Overcast,270,2014-01-13 14:35:00
8:55 AM,37.6,31.8,80,29.53,10.0,West,8.1,-,N/A,,Overcast,270,2014-01-13 14:55:00
9:15 AM,37.9,31.8,79,29.54,10.0,West,5.8,-,N/A,,Overcast,280,2014-01-13 15:15:00
9:35 AM,38.3,31.6,77,29.55,10.0,West,8.1,-,N/A,,Overcast,270,2014-01-13 15:35:00
9:55 AM,38.5,31.6,76,29.54,10.0,West,5.8,-,N/A,,Scattered Clouds,260,2014-01-13 15:55:00
10:15 AM,39.2,31.1,73,29.55,10.0,West,4.6,-,N/A,,Clear,280,2014-01-13 16:15:00
10:35 AM,40.3,31.1,70,29.55,10.0,West,8.1,-,N/A,,Clear,280,2014-01-13 16:35:00
10:55 AM,41.0,30.7,67,29.55,10.0,WNW,11.5,-,N/A,,Clear,290,2014-01-13 16:55:00
11:15 AM,41.0,30.7,67,29.54,10.0,West,9.2,-,N/A,,Clear,280,2014-01-13 17:15:00
11:35 AM,41.4,30.7,66,29.54,10.0,WNW,6.9,-,N/A,,Clear,290,2014-01-13 17:35:00
11:55 AM,41.7,30.4,64,29.54,10.0,West,8.1,16.1,N/A,,Clear,280,2014-01-13 17:55:00
12:15 PM,41.2,30.9,67,29.54,10.0,West,11.5,-,N/A,,Clear,280,2014-01-13 18:15:00
12:35 PM,40.6,30.6,67,29.55,10.0,West,16.1,20.7,N/A,,Mostly Cloudy,280,2014-01-13 18:35:00
12:55 PM,40.6,30.0,66,29.56,10.0,West,16.1,20.7,N/A,,Overcast,280,2014-01-13 18:55:00
1:15 PM,39.2,29.8,69,29.56,10.0,West,16.1,-,N/A,,Overcast,280,2014-01-13 19:15:00
1:35 PM,37.4,29.3,73,29.57,10.0,NW,10.4,-,N/A,,Overcast,320,2014-01-13 19:35:00
1:55 PM,36.5,29.3,75,29.58,10.0,West,11.5,18.4,N/A,,Overcast,280,2014-01-13 19:55:00
2:15 PM,36.1,29.1,76,29.58,10.0,West,12.7,-,N/A,,Overcast,280,2014-01-13 20:15:00
2:35 PM,37.0,28.4,71,29.60,10.0,West,10.4,-,N/A,,Overcast,280,2014-01-13 20:35:00
2:55 PM,36.7,28.2,71,29.61,10.0,WNW,10.4,-,N/A,,Mostly Cloudy,290,2014-01-13 20:55:00
3:15 PM,36.7,27.1,68,29.62,10.0,West,10.4,-,N/A,,Scattered Clouds,280,2014-01-13 21:15:00
3:35 PM,36.5,25.5,64,29.63,10.0,WNW,11.5,17.3,N/A,,Clear,290,2014-01-13 21:35:00
3:55 PM,36.1,24.8,63,29.63,10.0,West,13.8,-,N/A,,Clear,280,2014-01-13 21:55:00
4:15 PM,35.8,23.5,61,29.63,10.0,West,9.2,-,N/A,,Clear,280,2014-01-13 22:15:00
4:35 PM,35.1,22.1,59,29.64,10.0,West,12.7,-,N/A,,Clear,280,2014-01-13 22:35:00
4:55 PM,34.7,21.2,58,29.65,10.0,West,11.5,-,N/A,,Clear,270,2014-01-13 22:55:00
5:15 PM,34.0,20.3,57,29.65,10.0,West,11.5,17.3,N/A,,Clear,280,2014-01-13 23:15:00
5:35 PM,33.1,19.4,57,29.66,10.0,West,13.8,-,N/A,,Clear,280,2014-01-13 23:35:00
5:55 PM,32.4,19.6,59,29.67,10.0,West,10.4,-,N/A,,Clear,280,2014-01-13 23:55:00
6:15 PM,32.0,19.6,60,29.68,10.0,West,10.4,-,N/A,,Clear,270,2014-01-14 00:15:00
6:35 PM,32.0,19.4,60,29.68,10.0,West,11.5,-,N/A,,Clear,270,2014-01-14 00:35:00
6:55 PM,31.3,19.0,61,29.68,10.0,West,8.1,-,N/A,,Clear,260,2014-01-14 00:55:00
7:15 PM,30.9,18.9,61,29.68,10.0,West,10.4,-,N/A,,Clear,280,2014-01-14 01:15:00
7:35 PM,30.0,18.5,62,29.68,10.0,WSW,6.9,-,N/A,,Clear,250,2014-01-14 01:35:00
7:55 PM,30.2,19.0,63,29.68,10.0,WSW,4.6,-,N/A,,Clear,250,2014-01-14 01:55:00
8:15 PM,29.5,19.8,67,29.69,10.0,West,5.8,-,N/A,,Clear,260,2014-01-14 02:15:00
8:35 PM,29.1,19.6,68,29.70,10.0,West,6.9,-,N/A,,Clear,260,2014-01-14 02:35:00
8:55 PM,28.9,19.6,68,29.70,10.0,WSW,5.8,-,N/A,,Clear,250,2014-01-14 02:55:00
9:15 PM,28.9,19.8,69,29.70,10.0,WSW,3.5,-,N/A,,Clear,240,2014-01-14 03:15:00
9:35 PM,28.4,19.9,71,29.71,10.0,Calm,Calm,-,N/A,,Clear,0,2014-01-14 03:35:00
9:55 PM,27.7,20.1,73,29.70,10.0,SSW,4.6,-,N/A,,Clear,210,2014-01-14 03:55:00
10:15 PM,27.5,20.3,74,29.70,10.0,SW,4.6,-,N/A,,Clear,220,2014-01-14 04:15:00
10:35 PM,27.9,21.0,75,29.71,10.0,WSW,4.6,-,N/A,,Mostly Cloudy,240,2014-01-14 04:35:00
10:55 PM,28.4,21.6,76,29.70,10.0,Calm,Calm,-,N/A,,Overcast,0,2014-01-14 04:55:00
11:15 PM,28.4,21.7,76,29.70,10.0,Calm,Calm,-,N/A,,Overcast,0,2014-01-14 05:15:00
11:35 PM,28.2,21.9,77,29.70,10.0,Calm,Calm,-,N/A,,Overcast,0,2014-01-14 05:35:00
11:55 PM,29.3,22.1,75,29.69,10.0,SW,3.5,-,N/A,,Overcast,230,2014-01-14 05:55:00